Location: One Hoe
(18.0500°N, 63.0333°W)
Time: 08:02:05
(UTC+00:00)

Daily predictions for brighter satellites

Satellite Brightness Start Highest point End
(mag) Time Altitude Azimuth Time Altitude Azimuth Time Altitude Azimuth
Maqsat-H 4.3 21:26:51 10° SW 21:31:57 43° SSE 21:54:55 10° E
Cosmos 2112 Rocket 4.2 21:49:08 10° S 21:54:09 53° ESE 21:59:11 10° NNE
Hubble Space Telescope 1.8 21:50:50 10° SW 21:54:37 35° SSE 21:58:25 10° E
H-2A R/B 2.7 21:51:33 10° SSE 21:55:23 65° ENE 21:59:12 10° N
Okean-O 3.1 21:51:20 10° SE 21:55:24 37° ENE 21:59:29 10° N
Cosmos 2219 3.6 21:51:09 10° N 21:56:20 38° ENE 22:01:32 10° SE
CORIOLIS 4.2 21:51:30 10° SSE 21:56:47 61° ENE 22:02:06 10° N
Cosmos 1980 Rocket 2.5 21:51:28 10° S 21:56:48 47° ESE 22:02:13 10° NNE
SL-8 R/B 3.7 21:54:26 10° SW 21:59:14 84° SE 22:04:04 10° NE
Cosmos 1680 Rocket 3.5 21:56:06 10° S 22:01:17 80° ESE 22:06:30 10° NNE
Cosmos 1238 Rocket 3.4 22:02:34 10° NNW 22:06:01 49° W 22:09:02 10° SSW
Cosmos 158 Rocket 4.4 22:02:01 10° S 22:07:04 43° E 22:12:03 10° NNE
SKYMED 2 3.8 22:09:03 10° N 22:13:23 77° WNW 22:17:41 10° SSW
Cosmos 2227 Rocket 2.8 22:10:37 10° N 22:15:38 32° ENE 22:20:37 10° SE
Cosmos 2297 Rocket 2.7 22:10:33 10° N 22:15:42 36° ENE 22:20:50 10° SE
YAOGAN 3 4.5 22:12:30 10° SSE 22:16:50 71° ENE 22:21:10 10° N
Cosmos 2228 Rocket 4.2 22:18:45 10° SE 22:22:11 22° E 22:24:43 14° NE
Cosmos 1805 Rocket 3.7 22:18:38 10° N 22:22:59 80° W 22:27:23 10° S
ADEOS Rocket 4.3 22:29:44 15° E 22:29:44 15° E 22:32:50 10° SE
Tsikada Rocket 4.1 22:23:34 10° S 22:29:44 60° E 22:35:58 10° NNE
Cosmos 1816 Rocket 4.5 22:28:00 10° S 22:34:15 71° E 22:40:33 10° N
Cosmos 1862 3.3 22:32:39 10° N 22:36:33 55° E 22:40:28 10° SSE
GPS 2-15 Rocket1 3.2 22:31:51 10° W 22:36:42 71° N 22:39:29 25° E
ATLAS 5 CENTAUR R/B 2.6 22:29:07 10° SSW 22:38:13 56° SE 22:40:04 26° NE
GENESIS II 4.1 22:35:55 10° SSW 22:39:48 74° ESE 22:42:19 22° NNE
Intelsat 5-3 Rocket 2.7 22:38:33 10° WNW 22:40:31 22° N 22:40:31 22° N
Cosmos 2082 4.2 22:38:37 10° N 22:43:40 34° ENE 22:48:43 10° SE
Cosmos 1633 3.2 22:47:57 10° NNW 22:51:31 57° W 22:55:03 10° S
ISS -2.2 22:49:04 10° S 22:51:09 23° SSE 22:51:09 23° SSE
Cosmos 1633 Rocket 3.0 22:47:54 10° N 22:52:19 87° E 22:56:45 10° S
Cosmos 1515 Rocket 3.7 22:48:22 10° S 22:52:47 76° W 22:57:11 10° N
ATLAS 5 CENTAUR R/B 2.7 22:46:58 10° NNW 22:53:19 55° ENE 23:00:12 10° SE
Cosmos 2084 3.3 22:49:26 10° NNW 22:53:37 86° WSW 22:57:44 10° SSE
CZ-3C R/B 0.1 22:50:06 10° W 22:55:09 80° N 22:55:30 68° ENE
Cosmos 1151 Rocket 4.4 22:51:08 10° SSW 22:55:11 40° W 22:59:16 10° NNW
COSMOS 2455 3.6 22:53:56 10° SSE 22:59:07 31° ESE 22:59:10 31° ESE
YAOGAN 6 3.4 22:56:58 10° S 23:00:23 49° W 23:03:47 10° NNW
Cosmos 1606 2.6 22:58:22 10° S 23:02:10 86° W 23:03:32 38° N
Delta 168 3.9 22:59:49 10° WNW 23:02:57 30° N 23:03:00 30° N
Envisat 4.3 22:58:55 10° S 23:03:40 41° W 23:08:26 10° NNW
Cosmos 1666 Rocket 4.5 22:59:46 10° NNW 23:03:55 47° W 23:08:03 10° SSW
Cosmos 1400 Rocket 3.5 23:00:57 10° S 23:03:48 39° SE 23:03:48 39° SE
NOAA 11 4.1 23:03:35 10° SSE 23:08:52 57° ENE 23:14:08 10° N
SeaSat 1 2.7 23:06:05 10° SSE 23:10:57 67° WSW 23:15:51 10° NNW
CSL-04 Debris 4.2 23:07:18 10° S 23:12:46 82° WSW 23:18:16 10° NNW
YAOGAN 1 2.9 23:10:02 10° S 23:14:18 65° WSW 23:18:35 10° NNW
H-2A R/B 2.7 23:12:06 10° WSW 23:13:29 23° WSW 23:13:29 23° WSW
CZ-4 R/B 2.8 23:12:04 10° S 23:16:02 41° W 23:19:58 10° NNW
Ariane H10 3.8 23:20:47 10° SW 23:24:09 20° S 23:24:24 20° S
Aurora 2 Rocket 2.9 23:21:37 10° W 23:26:04 75° NNW 23:26:12 74° N
Cosmos 1607 4.4 23:21:55 10° NNW 23:28:03 60° WSW 23:34:16 10° S
CSL-04 Rocket 4.4 23:24:56 10° S 23:30:13 52° WSW 23:35:25 10° NNW
SL-16 R/B 2.2 23:28:39 10° SSW 23:34:17 75° WNW 23:35:05 64° NNW
Cosmos 1470 Rocket 4.3 23:33:57 42° NW 23:34:56 51° W 23:39:15 10° SSW
Cosmos 2360 Rocket 4.1 23:29:57 10° SSE 23:31:12 16° SSE 23:31:12 16° SSE
Hubble Space Telescope 2.3 23:31:44 10° W 23:34:22 34° WNW 23:34:22 34° WNW
NATO 3D Rocket 4.2 23:34:51 10° WNW 23:41:08 72° N 23:41:44 69° NE
DNEPR-1 R/B 4.3 23:36:13 10° NNW 23:43:13 83° WSW 23:43:24 81° SW
Cosmos 2322 Rocket 2.3 23:38:44 10° SSW 23:43:58 69° W 23:43:58 69° W
